Change the Weather History Date:

Monday, June 17, 2013

  Actual Average (KVPZ) Record (KVPZ)
Temperature  
Mean Temperature 74 °F 70 °F  
Max Temperature 85 °F 80 °F 91 °F (2007)
Min Temperature 63 °F 59 °F 47 °F (1999)
Cooling Degree Days 9 6  
Month to date cooling degree days 74  
Year to date cooling degree days 121  
Since 1 June cooling degree days 74  
Growing Degree Days 24 (Base 50)    
Moisture  
Dew Point 60 °F    
Average Humidity 66    
Maximum Humidity 99    
Minimum Humidity 30    
Precipitation  
Precipitation 0.00 in 0.11 in 0.43 in (2012)
Month to date precipitation 2.20  
Year to date precipitation 15.18  
Sea Level Pressure  
Sea Level Pressure 29.92 in    
Wind  
Wind Speed 5 mph (SW)    
Max Wind Speed 10 mph    
Max Gust Speed -    
Visibility 10 miles    
Events      
T = Trace of Precipitation, MM = Missing Value Source: NWS Daily Summary

Daily Weather History Graph

Daily Weather History Graph

Search for Another Location

Airport or City:

Trip Planner

Search our weather history database for the weather conditions in past years. The results will help you decide how hot, cold, wet, or windy it might be!

Date:

Astronomy

Jun. 17, 2013 Rise Set
Actual Time 5:12 AM CDT 8:22 PM CDT
Civil Twilight 4:39 AM CDT 8:56 PM CDT
Nautical Twilight 3:55 AM CDT 9:39 PM CDT
Astronomical Twilight 3:03 AM CDT 10:31 PM CDT
Moon 1:57 PM CDT (6/17) 12:52 AM CDT (6/17)
Length of Visible Light 16h 17m
Length of Day
15h 09m
First Quarter, 60% of the Moon is Illuminated
Jun 17
First Quarter
Jun 23
Full
Jun 29
Last Quarter
Jul 8
New
Jul 15
First Quarter

Hourly Weather History & Observations

Time (CDT) Temp. Heat Index Dew Point Humidity Pressure Visibility Wind Dir Wind Speed Gust Speed Precip Events Conditions
12:15 AM 67.1 °F - 66.4 °F 98% 29.93 in 10.0 mi SSW 4.6 mph - N/A   Clear
12:35 AM 66.4 °F - 65.8 °F 98% 29.92 in 10.0 mi South 4.6 mph - N/A   Clear
12:55 AM 66.4 °F - 66.0 °F 99% 29.91 in 10.0 mi SSW 4.6 mph - N/A   Clear
1:15 AM 66.9 °F - 66.4 °F 98% 29.92 in 10.0 mi SW 4.6 mph - N/A   Clear
1:35 AM 67.1 °F - 66.6 °F 98% 29.93 in 10.0 mi SW 5.8 mph - N/A   Clear
1:55 AM 66.7 °F - 66.2 °F 98% 29.92 in 10.0 mi WSW 5.8 mph - N/A   Clear
2:15 AM 66.9 °F - 66.2 °F 98% 29.92 in 10.0 mi SW 6.9 mph - N/A   Clear
2:35 AM 67.1 °F - 66.0 °F 96% 29.91 in 10.0 mi SW 8.1 mph - N/A   Clear
2:55 AM 67.5 °F - 66.0 °F 95% 29.91 in 10.0 mi SW 6.9 mph - N/A   Clear
3:15 AM 67.1 °F - 65.7 °F 95% 29.90 in 10.0 mi SW 4.6 mph - N/A   Clear
3:35 AM 66.4 °F - 65.3 °F 96% 29.92 in 10.0 mi SW 4.6 mph - N/A   Clear
3:55 AM 65.7 °F - 65.1 °F 98% 29.93 in 10.0 mi SW 6.9 mph - N/A   Clear
4:15 AM 65.3 °F - 64.6 °F 98% 29.93 in 10.0 mi Calm Calm - N/A   Clear
4:35 AM 64.4 °F - 64.0 °F 99% 29.93 in 10.0 mi SW 3.5 mph - N/A   Clear
4:55 AM 64.2 °F - 64.0 °F 99% 29.93 in 7.0 mi Calm Calm - N/A   Clear
5:15 AM 64.0 °F - 63.9 °F 99% 29.92 in 7.0 mi Calm Calm - N/A   Clear
5:35 AM 63.3 °F - 63.1 °F 99% 29.92 in 5.0 mi SSW 4.6 mph - N/A   Clear
5:55 AM 63.7 °F - 63.5 °F 99% 29.92 in 5.0 mi SW 3.5 mph - N/A   Clear
6:15 AM 64.0 °F - 63.9 °F 99% 29.93 in 5.0 mi Calm Calm - N/A   Clear
6:35 AM 65.5 °F - 65.3 °F 99% 29.94 in 7.0 mi SSW 4.6 mph - N/A   Clear
6:55 AM 66.9 °F - 66.2 °F 98% 29.94 in 7.0 mi SSW 4.6 mph - N/A   Clear
7:15 AM 68.0 °F - 66.7 °F 96% 29.94 in 7.0 mi WSW 3.5 mph - N/A   Clear
7:35 AM 69.3 °F - 67.6 °F 95% 29.94 in 10.0 mi SW 4.6 mph - N/A   Clear
7:55 AM 70.3 °F - 68.0 °F 92% 29.94 in 10.0 mi WSW 4.6 mph - N/A   Clear
8:15 AM 71.2 °F - 68.2 °F 90% 29.95 in 10.0 mi WSW 5.8 mph - N/A   Clear
8:35 AM 72.3 °F - 68.4 °F 87% 29.95 in 10.0 mi SSW 5.8 mph - N/A   Clear
8:55 AM 73.4 °F - 68.2 °F 84% 29.95 in 10.0 mi WSW 4.6 mph - N/A   Clear
9:15 AM 74.8 °F - 67.8 °F 79% 29.95 in 10.0 mi WSW 4.6 mph - N/A   Clear
9:35 AM 75.7 °F - 66.9 °F 74% 29.95 in 10.0 mi WSW 3.5 mph - N/A   Clear
9:55 AM 76.5 °F - 66.4 °F 71% 29.95 in 10.0 mi WSW 3.5 mph - N/A   Clear
10:15 AM 77.5 °F - 67.1 °F 70% 29.95 in 10.0 mi SSW 3.5 mph - N/A   Clear
10:35 AM 78.8 °F - 66.7 °F 66% 29.94 in 10.0 mi Calm Calm - N/A   Clear
10:55 AM 80.2 °F 81.3 °F 61.7 °F 53% 29.93 in 10.0 mi Calm Calm - N/A   Clear
11:15 AM 81.5 °F 81.1 °F 55.9 °F 41% 29.93 in 10.0 mi Calm Calm - N/A   Clear
11:35 AM 82.4 °F - 52.5 °F 35% 29.94 in 10.0 mi Calm Calm - N/A   Clear
11:55 AM 82.9 °F - 50.9 °F 33% 29.94 in 10.0 mi Calm Calm - N/A   Clear
12:15 PM 82.9 °F - 49.8 °F 32% 29.93 in 10.0 mi SW 6.9 mph - N/A   Clear
12:35 PM 83.3 °F - 50.5 °F 32% 29.93 in 10.0 mi South 5.8 mph - N/A   Clear
12:55 PM 84.0 °F - 51.3 °F 32% 29.93 in 10.0 mi WSW 6.9 mph - N/A   Clear
1:15 PM 83.8 °F - 51.6 °F 33% 29.94 in 10.0 mi WSW 8.1 mph - N/A   Clear
1:35 PM 83.8 °F - 50.9 °F 32% 29.93 in 10.0 mi SW 8.1 mph - N/A   Clear
1:55 PM 84.4 °F - 50.2 °F 30% 29.93 in 10.0 mi SW 8.1 mph - N/A   Clear
2:15 PM 84.7 °F - 52.3 °F 33% 29.93 in 10.0 mi WSW 8.1 mph - N/A   Clear
2:35 PM 84.9 °F - 52.9 °F 33% 29.93 in 10.0 mi West 6.9 mph - N/A   Clear
2:55 PM 85.3 °F 83.5 °F 53.1 °F 33% 29.92 in 10.0 mi West 5.8 mph - N/A   Clear
3:15 PM 85.6 °F - 52.5 °F 32% 29.91 in 10.0 mi West 5.8 mph - N/A   Clear
3:35 PM 85.8 °F - 51.1 °F 30% 29.90 in 10.0 mi West 8.1 mph - N/A   Clear
3:55 PM 85.6 °F - 50.5 °F 30% 29.90 in 10.0 mi West 6.9 mph - N/A   Clear
4:15 PM 85.1 °F - 51.1 °F 31% 29.89 in 10.0 mi WSW 5.8 mph - N/A   Clear
4:35 PM 85.3 °F - 51.3 °F 31% 29.88 in 10.0 mi West 6.9 mph - N/A   Clear
4:55 PM 84.7 °F - 51.4 °F 32% 29.88 in 10.0 mi WSW 6.9 mph - N/A   Clear
5:15 PM 84.6 °F - 52.0 °F 32% 29.88 in 10.0 mi West 5.8 mph - N/A   Clear
5:35 PM 84.4 °F - 51.6 °F 32% 29.88 in 10.0 mi WSW 4.6 mph - N/A   Clear
5:55 PM 83.7 °F 82.3 °F 53.2 °F 35% 29.88 in 10.0 mi SW 5.8 mph - N/A   Clear
6:15 PM 83.3 °F 82.3 °F 55.4 °F 38% 29.89 in 10.0 mi SW 5.8 mph - N/A   Clear
6:35 PM 82.2 °F 82.0 °F 57.6 °F 43% 29.88 in 10.0 mi SSW 5.8 mph - N/A   Clear
6:55 PM 80.8 °F 81.1 °F 58.1 °F 46% 29.88 in 10.0 mi SSW 6.9 mph - N/A   Clear
7:15 PM 79.9 °F - 58.5 °F 48% 29.88 in 10.0 mi SW 3.5 mph - N/A   Clear
7:35 PM 78.6 °F - 60.4 °F 54% 29.87 in 10.0 mi SSW 4.6 mph - N/A   Clear
7:55 PM 77.4 °F - 61.0 °F 57% 29.88 in 10.0 mi SSW 3.5 mph - N/A   Clear
8:15 PM 76.8 °F - 60.6 °F 57% 29.88 in 10.0 mi South 3.5 mph - N/A   Clear
8:35 PM 74.7 °F - 62.4 °F 66% 29.87 in 10.0 mi SSE 4.6 mph - N/A   Clear
8:55 PM 73.0 °F - 62.6 °F 70% 29.88 in 10.0 mi SSW 5.8 mph - N/A   Clear
9:15 PM 73.4 °F - 61.5 °F 66% 29.89 in 10.0 mi SSW 3.5 mph - N/A   Clear
9:35 PM 73.9 °F - 61.7 °F 65% 29.90 in 10.0 mi Calm Calm - N/A   Clear
9:55 PM 73.4 °F - 62.1 °F 68% 29.89 in 10.0 mi Calm Calm - N/A   Scattered Clouds
10:15 PM 73.8 °F - 58.1 °F 58% 29.91 in 10.0 mi NW 9.2 mph - N/A   Scattered Clouds
10:35 PM 72.7 °F - 56.8 °F 57% 29.91 in 10.0 mi North 10.4 mph - N/A   Clear
10:55 PM 70.9 °F - 58.1 °F 64% 29.91 in 10.0 mi NNE 8.1 mph - N/A   Clear
11:15 PM 70.0 °F - 58.1 °F 66% 29.90 in 10.0 mi NNE 6.9 mph - N/A   Clear
11:35 PM 69.1 °F - 57.9 °F 68% 29.90 in 10.0 mi NE 4.6 mph - N/A   Scattered Clouds
11:55 PM 68.5 °F - 57.6 °F 68% 29.90 in 10.0 mi NE 4.6 mph - N/A   Scattered Clouds